Weather Roundup
Issued by NWS Springfield, MO

Home | Current Version | Previous Version | Text Only | Print | Product List | Glossary On
Versions: 1 2 3 4 5 6 7 8 9 10 11 12 13 14 15 16 17 18 19 20 21 22 23 24 25 26 27 28 29 30 31 32 33 34 35 36 37 38 39 40 41 42 43 44 45 46 47 48 49 50
000
NZUS99 KSGF 301607
HRRSGF

HOURLY WEATHER
NATIONAL WEATHER SERVICE SPRINGFIELD MO
1000 AM CST FRI JAN 30 2015

......SGF CWA......

CITY           SKY/WX    TMP DP  RH WIND       PRES   REMARKS
SPRINGFIELD    MOSUNNY   31  24  75 NE9       30.51S WCI  23
JOPLIN         PTSUNNY   31  26  82 NE6       30.55R WCI  25
WEST PLAINS    SUNNY     33  22  63 N6        30.52R WCI  28
ROLLA          MOSUNNY   29  21  72 NE5       30.51S WCI  24
OSAGE BEACH    MOSUNNY   30  21  69 NE7       30.54F WCI  23
BRANSON        PTSUNNY   36  27  69 E9        30.52S WCI  29

......SURROUNDING SGF CWA......

CITY           SKY/WX    TMP DP  RH WIND       PRES   REMARKS
CHANUTE        PTSUNNY   31  27  85 VRB3      30.56R
PARSONS        PTSUNNY   33  26  75 VRB3      30.57S
COFFEYVILLE    MOSUNNY   34  26  72 VRB5      30.58R WCI  30
EMPORIA        PTSUNNY   28  25  88 CALM      30.55R
GROVE OK       SUNNY     34  30  86 E3        30.56S
ROGERS AR      SUNNY     34  24  67 E9        30.51S WCI  27
SILOAM SPRINGS MOSUNNY  N/A N/A N/A SE6       30.53S
HARRISON AR    SUNNY     33  24  69 N5        30.52R WCI  29
NEAR YELLVILLE SUNNY     34  21  60 E5        30.54S WCI  30

......KANSAS AND MISSOURI......

CITY           SKY/WX    TMP DP  RH WIND       PRES   REMARKS
KANSAS CTY INT CLOUDY    26  21  81 E5        30.55R WCI  20
DOWNTOWN KC    SUNNY     29  22  75 E6        30.56S WCI  23
COLUMBIA       SUNNY     28  20  71 E7        30.55S WCI  21
SEDALIA        SUNNY     29  21  72 E9        30.55F WCI  20
ST JOSEPH      MOSUNNY   26  21  81 CALM      30.58R
ST LOUIS       MOSUNNY   32  17  54 NE6       30.56S WCI  26
SPIRIT OF STL  MOSUNNY   31  18  58 E5        30.56S WCI  26
KIRKSVILLE     SUNNY     25  18  74 E6        30.56R WCI  18
WICHITA        CLOUDY    34  27  75 S7        30.54R WCI  28
TOPEKA         MOSUNNY   27  23  85 CALM      30.57F
OLATHE         MOSUNNY   28  21  75 CALM      30.54S

......TENNESSEE......

CITY           SKY/WX    TMP DP  RH WIND       PRES   REMARKS
MEMPHIS        MOSUNNY   43  25  49 NE15      30.51R
NASHVILLE      MOSUNNY   41  21  44 N9G20     30.49R

......ARKANSAS.......

CITY           SKY/WX    TMP DP  RH WIND       PRES   REMARKS
FAYETTEVILLE   MOSUNNY   33  26  75 E8        30.52R WCI  26
FT SMITH       PTSUNNY   38  28  67 E3        30.55R
LITTLE ROCK    PTSUNNY   42  26  53 NE7       30.56R

......OKLAHOMA.......

CITY           SKY/WX    TMP DP  RH WIND       PRES   REMARKS
TULSA          CLOUDY    34  28  79 NE3       30.56F
PONCA CITY     PTSUNNY   37  27  67 E3        30.56S
MCALESTER      CLOUDY    39  29  67 NE5       30.54R
OKLAHOMA CITY  CLOUDY    39  26  59 NE8       30.53R WCI  33

......IOWA............

CITY           SKY/WX    TMP DP  RH WIND       PRES   REMARKS
DES MOINES     MOSUNNY   22  13  68 CALM      30.56S
QUAD CITIES    SUNNY     24  11  57 NE5       30.57R WCI  18

......ILLINOIS........

CITY           SKY/WX    TMP DP  RH WIND       PRES   REMARKS
QUINCY         SUNNY     27  16  63 NE7       30.56R WCI  19
CHICAGO        PTSUNNY   23   7  50 N8        30.52R WCI  14



USA.gov is the U.S. government's official web portal to all federal, state and local government web resources and services.